^^
Your Local Weather - Clay, NY Station Historical Data
Daily Summary for June 19, 2017 Units:  English    Metric   Both
« Previous Day
Next Day »
Daily Weekly Monthly Yearly Custom
  High: Low: Average:
Temperature: 73.6 °F 62.8 °F 69.8 °F
Dew Point: 68.5 °F 60.7 °F 65.8 °F
Humidity: 94% 75% 88%
Wind Speed: 3.0mph 0.0mph 0.9mph
Wind Gust: 7.0mph - -
Wind- - SSW
Pressure: 29.74 in 29.63 in -
Precipitation: 0.33 in    
Historical Graphs
 
 
Tabular Data for June 19, 2017
Time Temperature Dew Point Pressure Wind Wind Speed Wind Gust Humidity Rainfall Rate (Hourly) solar
00:02 69.9 °F 66.5 °F 29.64 in South 2.0 mph 2.0 mph 89% 0.00 in 0 W/m2
00:08 69.8 °F 66.7 °F 29.64 in South 1.0 mph 2.0 mph 90% 0.00 in 0 W/m2
00:14 69.7 °F 66.6 °F 29.63 in Calm   1.0 mph 90% 0.00 in 0 W/m2
00:20 69.5 °F 66.4 °F 29.63 in Calm     90% 0.00 in 0 W/m2
00:26 69.4 °F 66.7 °F 29.63 in Calm     91% 0.00 in 0 W/m2
00:32 69.3 °F 66.6 °F 29.63 in Calm   1.0 mph 91% 0.00 in 0 W/m2
00:38 69.3 °F 66.6 °F 29.64 in South 1.0 mph 1.0 mph 91% 0.00 in 0 W/m2
00:44 69.5 °F 66.8 °F 29.64 in South 1.0 mph 1.0 mph 91% 0.00 in 0 W/m2
00:50 69.7 °F 66.6 °F 29.64 in South 1.0 mph 1.0 mph 90% 0.00 in 0 W/m2
00:56 70.0 °F 66.9 °F 29.64 in SSE 1.0 mph 1.0 mph 90% 0.00 in 0 W/m2
01:02 70.2 °F 66.8 °F 29.65 in SSE 1.0 mph 3.0 mph 89% 0.00 in 0 W/m2
01:08 70.3 °F 66.9 °F 29.65 in SSE 1.0 mph 3.0 mph 89% 0.00 in 0 W/m2
01:14 70.4 °F 66.7 °F 29.64 in SSE 1.0 mph 1.0 mph 88% 0.00 in 0 W/m2
01:20 70.3 °F 66.9 °F 29.64 in Calm     89% 0.00 in 0 W/m2
01:26 70.1 °F 66.7 °F 29.65 in Calm     89% 0.00 in 0 W/m2
01:32 69.9 °F 66.8 °F 29.64 in Calm     90% 0.00 in 0 W/m2
01:38 69.6 °F 66.5 °F 29.64 in Calm     90% 0.00 in 0 W/m2
01:44 69.5 °F 66.8 °F 29.64 in Calm     91% 0.00 in 0 W/m2
01:50 69.4 °F 66.7 °F 29.64 in Calm     91% 0.00 in 0 W/m2
01:56 69.5 °F 66.8 °F 29.64 in Calm     91% 0.00 in 0 W/m2
02:02 69.5 °F 67.1 °F 29.65 in Calm     92% 0.00 in 0 W/m2
02:08 69.6 °F 67.2 °F 29.65 in Calm   2.0 mph 92% 0.00 in 0 W/m2
02:14 69.8 °F 67.1 °F 29.65 in SSE 1.0 mph 1.0 mph 91% 0.00 in 0 W/m2
02:20 70.0 °F 67.3 °F 29.65 in Calm   1.0 mph 91% 0.00 in 0 W/m2
02:32 70.7 °F 67.3 °F 29.65 in SW 2.0 mph 3.0 mph 89% 0.00 in 0 W/m2
02:38 71.0 °F 67.3 °F 29.66 in SW 3.0 mph 6.0 mph 88% 0.00 in 0 W/m2
02:44 71.2 °F 67.1 °F 29.66 in SW 2.0 mph 3.0 mph 87% 0.00 in 0 W/m2
02:50 71.2 °F 67.1 °F 29.66 in SW 1.0 mph 1.0 mph 87% 0.00 in 0 W/m2
02:56 71.1 °F 67.0 °F 29.66 in SW 1.0 mph 4.0 mph 87% 0.00 in 0 W/m2
03:02 71.2 °F 67.1 °F 29.66 in SW 2.0 mph 2.0 mph 87% 0.00 in 0 W/m2
03:08 71.1 °F 67.0 °F 29.66 in SSW 2.0 mph 4.0 mph 87% 0.00 in 0 W/m2
03:14 71.1 °F 67.0 °F 29.65 in SW 3.0 mph 6.0 mph 87% 0.00 in 0 W/m2
03:20 71.1 °F 66.7 °F 29.65 in West 3.0 mph 3.0 mph 86% 0.00 in 0 W/m2
03:26 71.1 °F 67.0 °F 29.65 in SSW 2.0 mph 3.0 mph 87% 0.00 in 0 W/m2
03:32 71.0 °F 66.9 °F 29.66 in West 2.0 mph 3.0 mph 87% 0.00 in 0 W/m2
03:38 70.9 °F 66.8 °F 29.65 in South 2.0 mph 3.0 mph 87% 0.00 in 0 W/m2
03:44 70.8 °F 66.7 °F 29.65 in SW 1.0 mph 4.0 mph 87% 0.00 in 0 W/m2
03:50 70.7 °F 66.6 °F 29.65 in SW 1.0 mph 2.0 mph 87% 0.00 in 0 W/m2
03:56 70.7 °F 67.0 °F 29.65 in SW 1.0 mph 2.0 mph 88% 0.00 in 0 W/m2
04:02 70.5 °F 66.8 °F 29.66 in SW 1.0 mph 2.0 mph 88% 0.00 in 0 W/m2
04:08 70.4 °F 66.7 °F 29.66 in SW 1.0 mph 2.0 mph 88% 0.00 in 0 W/m2
04:14 70.3 °F 66.6 °F 29.65 in Calm   1.0 mph 88% 0.00 in 0 W/m2
04:20 70.0 °F 66.6 °F 29.64 in Calm     89% 0.00 in 0 W/m2
04:26 69.8 °F 66.7 °F 29.65 in Calm     90% 0.00 in 0 W/m2
04:32 69.6 °F 66.5 °F 29.65 in Calm     90% 0.00 in 0 W/m2
04:38 69.5 °F 66.8 °F 29.65 in Calm   1.0 mph 91% 0.00 in 0 W/m2
04:44 69.5 °F 66.8 °F 29.65 in Calm   2.0 mph 91% 0.00 in 0 W/m2
04:50 69.4 °F 66.7 °F 29.65 in Calm     91% 0.00 in 0 W/m2
04:56 69.4 °F 66.7 °F 29.65 in Calm     91% 0.00 in 0 W/m2
05:02 69.5 °F 66.8 °F 29.66 in Calm   1.0 mph 91% 0.00 in 0 W/m2
05:08 69.5 °F 66.8 °F 29.66 in SW 1.0 mph 2.0 mph 91% 0.00 in 0 W/m2
05:14 69.6 °F 66.9 °F 29.67 in SW 1.0 mph 1.0 mph 91% 0.00 in 0 W/m2
05:20 69.6 °F 66.9 °F 29.67 in Calm   1.0 mph 91% 0.00 in 0 W/m2
05:26 69.6 °F 66.9 °F 29.67 in Calm   1.0 mph 91% 0.00 in 0 W/m2
05:32 69.6 °F 66.9 °F 29.67 in Calm   1.0 mph 91% 0.00 in 0 W/m2
05:38 69.7 °F 67.0 °F 29.67 in South 1.0 mph 1.0 mph 91% 0.00 in 0 W/m2
05:44 69.7 °F 67.0 °F 29.67 in South 1.0 mph 1.0 mph 91% 0.00 in 5 W/m2
05:50 69.6 °F 66.9 °F 29.67 in South 1.0 mph 1.0 mph 91% 0.00 in 0 W/m2
05:56 69.6 °F 66.9 °F 29.67 in Calm   3.0 mph 91% 0.00 in 0 W/m2
06:02 69.6 °F 66.9 °F 29.67 in Calm   1.0 mph 91% 0.00 in 5 W/m2
06:08 69.5 °F 66.8 °F 29.67 in SSE 1.0 mph 2.0 mph 91% 0.00 in 5 W/m2
06:14 69.5 °F 66.8 °F 29.67 in SSE 1.0 mph 2.0 mph 91% 0.00 in 7 W/m2
06:20 69.5 °F 66.8 °F 29.67 in SSW 1.0 mph 1.0 mph 91% 0.00 in 0 W/m2
06:26 69.5 °F 66.8 °F 29.68 in SSE 1.0 mph 3.0 mph 91% 0.00 in 5 W/m2
06:32 69.6 °F 66.9 °F 29.68 in SSE 1.0 mph 2.0 mph 91% 0.00 in 11 W/m2
06:38 69.6 °F 66.9 °F 29.67 in South 1.0 mph 2.0 mph 91% 0.00 in 32 W/m2
06:44 69.7 °F 67.0 °F 29.67 in South 2.0 mph 2.0 mph 91% 0.00 in 30 W/m2
06:50 69.7 °F 67.0 °F 29.68 in SSW 2.0 mph 2.0 mph 91% 0.00 in 12 W/m2
06:56 69.8 °F 67.1 °F 29.68 in SW 2.0 mph 5.0 mph 91% 0.00 in 5 W/m2
07:02 69.8 °F 67.1 °F 29.69 in SSW 2.0 mph 2.0 mph 91% 0.00 in 14 W/m2
07:08 69.8 °F 67.1 °F 29.69 in SSW 1.0 mph 2.0 mph 91% 0.00 in 12 W/m2
07:14 69.8 °F 67.1 °F 29.69 in Calm   2.0 mph 91% 0.00 in 11 W/m2
07:20 69.7 °F 67.0 °F 29.69 in SSW 1.0 mph 1.0 mph 91% 0.00 in 9 W/m2
07:26 69.7 °F 67.0 °F 29.69 in SSW 1.0 mph 1.0 mph 91% 0.00 in 9 W/m2
07:32 69.7 °F 67.0 °F 29.69 in Calm     91% 0.00 in 23 W/m2
07:38 69.6 °F 66.9 °F 29.69 in Calm   1.0 mph 91% 0.00 in 44 W/m2
07:44 69.7 °F 67.0 °F 29.69 in Calm   1.0 mph 91% 0.00 in 25 W/m2
07:50 69.7 °F 67.0 °F 29.70 in SSW 1.0 mph 1.0 mph 91% 0.00 in 30 W/m2
07:56 69.7 °F 67.0 °F 29.70 in SSW 1.0 mph 1.0 mph 91% 0.00 in 37 W/m2
08:02 69.7 °F 67.0 °F 29.70 in Calm     91% 0.00 in 23 W/m2
08:08 69.8 °F 67.1 °F 29.70 in Calm     91% 0.00 in 37 W/m2
08:14 69.9 °F 67.2 °F 29.70 in Calm   2.0 mph 91% 0.00 in 65 W/m2
08:20 70.0 °F 67.3 °F 29.70 in Calm     91% 0.00 in 160 W/m2
08:26 70.4 °F 68.0 °F 29.70 in Calm     92% 0.00 in 74 W/m2
08:32 70.5 °F 68.1 °F 29.70 in Calm     92% 0.00 in 39 W/m2
08:38 70.4 °F 67.6 °F 29.71 in Calm     91% 0.00 in 21 W/m2
08:44 70.3 °F 67.5 °F 29.72 in Calm     91% 0.00 in 14 W/m2
08:50 70.2 °F 67.4 °F 29.71 in Calm     91% 0.00 in 37 W/m2
08:56 70.1 °F 67.3 °F 29.70 in Calm   3.0 mph 91% 0.00 in 105 W/m2
09:02 70.2 °F 67.4 °F 29.70 in WSW 1.0 mph 2.0 mph 91% 0.00 in 169 W/m2
09:08 70.5 °F 67.7 °F 29.70 in WSW 1.0 mph 2.0 mph 91% 0.00 in 204 W/m2
09:14 70.7 °F 67.9 °F 29.70 in SSW 1.0 mph 1.0 mph 91% 0.00 in 111 W/m2
09:22 70.9 °F 67.8 °F 29.69 in South 1.0 mph 2.0 mph 90% 0.00 in 111 W/m2
09:28 71.0 °F 67.6 °F 29.70 in SSW 2.0 mph 3.0 mph 89% 0.00 in 146 W/m2
09:34 71.2 °F 67.8 °F 29.69 in SSW 2.0 mph 2.0 mph 89% 0.00 in 199 W/m2
09:40 71.5 °F 68.1 °F 29.69 in SW 1.0 mph 1.0 mph 89% 0.00 in 114 W/m2
09:46 71.5 °F 67.8 °F 29.69 in SW 1.0 mph 3.0 mph 88% 0.00 in 113 W/m2
09:52 71.5 °F 67.8 °F 29.69 in SW 1.0 mph 1.0 mph 88% 0.00 in 67 W/m2
09:58 71.5 °F 67.8 °F 29.69 in Calm   1.0 mph 88% 0.00 in 81 W/m2
10:04 71.5 °F 67.8 °F 29.70 in Calm     88% 0.00 in 100 W/m2
10:10 71.6 °F 68.2 °F 29.70 in Calm     89% 0.00 in 190 W/m2
10:16 71.9 °F 68.5 °F 29.70 in Calm   2.0 mph 89% 0.00 in 202 W/m2
10:22 71.9 °F 68.5 °F 29.70 in SSW 1.0 mph 3.0 mph 89% 0.00 in 271 W/m2
10:28 72.1 °F 68.3 °F 29.70 in WSW 1.0 mph 3.0 mph 88% 0.00 in 237 W/m2
10:34 72.3 °F 68.5 °F 29.70 in SSW 1.0 mph 2.0 mph 88% 0.00 in 204 W/m2
10:40 72.3 °F 68.2 °F 29.71 in SW 1.0 mph 1.0 mph 87% 0.00 in 193 W/m2
10:46 72.2 °F 67.8 °F 29.71 in West 2.0 mph 3.0 mph 86% 0.00 in 197 W/m2
10:52 72.0 °F 67.6 °F 29.71 in SW 2.0 mph 5.0 mph 86% 0.00 in 209 W/m2
10:58 72.0 °F 67.6 °F 29.71 in WSW 3.0 mph 5.0 mph 86% 0.00 in 225 W/m2
11:04 72.0 °F 67.6 °F 29.71 in WSW 2.0 mph 2.0 mph 86% 0.00 in 218 W/m2
11:10 72.2 °F 67.8 °F 29.72 in West 2.0 mph 3.0 mph 86% 0.00 in 181 W/m2
11:16 72.0 °F 67.6 °F 29.72 in SSW 2.0 mph 7.0 mph 86% 0.00 in 181 W/m2
11:22 71.9 °F 67.5 °F 29.72 in SW 3.0 mph 4.0 mph 86% 0.00 in 200 W/m2
11:28 71.8 °F 67.4 °F 29.72 in WSW 3.0 mph 4.0 mph 86% 0.00 in 279 W/m2
11:36 72.2 °F 67.8 °F 29.72 in West 2.0 mph 3.0 mph 86% 0.00 in 257 W/m2
11:38 72.2 °F 67.8 °F 29.72 in SW 2.0 mph 3.0 mph 86% 0.00 in 225 W/m2
11:44 72.3 °F 67.5 °F 29.72 in WSW 2.0 mph 2.0 mph 85% 0.00 in 188 W/m2
11:48 72.1 °F 67.0 °F 29.72 in WSW 2.0 mph 2.0 mph 84% 0.00 in 155 W/m2
11:56 71.7 °F 66.9 °F 29.72 in WNW 2.0 mph 2.0 mph 85% 0.00 in 176 W/m2
12:02 71.6 °F 67.2 °F 29.72 in SSW 1.0 mph 3.0 mph 86% 0.00 in 221 W/m2
12:08 71.4 °F 67.0 °F 29.72 in SW 1.0 mph 3.0 mph 86% 0.00 in 169 W/m2
12:14 71.3 °F 67.2 °F 29.72 in SW 1.0 mph 2.0 mph 87% 0.00 in 149 W/m2
12:20 71.2 °F 67.1 °F 29.73 in SSW 2.0 mph 5.0 mph 87% 0.00 in 169 W/m2
12:26 71.1 °F 67.0 °F 29.72 in SW 2.0 mph 5.0 mph 87% 0.00 in 204 W/m2
12:32 71.2 °F 67.1 °F 29.73 in SW 2.0 mph 3.0 mph 87% 0.00 in 197 W/m2
12:38 71.3 °F 67.2 °F 29.73 in West 2.0 mph 3.0 mph 87% 0.00 in 199 W/m2
12:44 71.4 °F 67.3 °F 29.72 in SSW 1.0 mph 2.0 mph 87% 0.00 in 192 W/m2
12:50 71.3 °F 66.9 °F 29.72 in SW 1.0 mph 1.0 mph 86% 0.00 in 174 W/m2
12:56 71.1 °F 66.7 °F 29.72 in SW 1.0 mph 3.0 mph 86% 0.00 in 137 W/m2
13:02 71.0 °F 66.6 °F 29.71 in SW 2.0 mph 2.0 mph 86% 0.00 in 163 W/m2
13:08 71.0 °F 66.9 °F 29.71 in SW 1.0 mph 3.0 mph 87% 0.00 in 162 W/m2
13:14 70.8 °F 66.4 °F 29.72 in WSW 2.0 mph 2.0 mph 86% 0.00 in 139 W/m2
13:20 70.6 °F 66.5 °F 29.72 in WSW 2.0 mph 4.0 mph 87% 0.04 in 109 W/m2
13:26 70.2 °F 65.8 °F 29.71 in WSW 2.0 mph 4.0 mph 86% 0.07 in 139 W/m2
13:32 69.8 °F 65.1 °F 29.71 in SW 2.0 mph 2.0 mph 85% 0.06 in 114 W/m2
13:38 69.8 °F 65.4 °F 29.71 in SW 2.0 mph 2.0 mph 86% 0.04 in 111 W/m2
13:44 69.9 °F 65.9 °F 29.71 in SW 1.0 mph 2.0 mph 87% 0.00 in 121 W/m2
13:50 70.0 °F 66.0 °F 29.70 in WSW 1.0 mph 1.0 mph 87% 0.00 in 123 W/m2
13:56 69.8 °F 65.8 °F 29.70 in WSW 1.0 mph 2.0 mph 87% 0.00 in 120 W/m2
14:02 70.0 °F 66.3 °F 29.70 in WSW 1.0 mph 1.0 mph 88% 0.00 in 95 W/m2
14:08 70.0 °F 66.3 °F 29.70 in Calm   1.0 mph 88% 0.00 in 67 W/m2
14:14 69.9 °F 66.2 °F 29.69 in Calm     88% 0.00 in 90 W/m2
14:20 69.7 °F 66.0 °F 29.69 in Calm     88% 0.00 in 79 W/m2
14:26 69.6 °F 65.9 °F 29.69 in Calm     88% 0.05 in 141 W/m2
14:32 69.7 °F 66.3 °F 29.70 in Calm     89% 0.05 in 199 W/m2
14:38 69.9 °F 66.5 °F 29.68 in Calm     89% 0.04 in 174 W/m2
14:44 70.1 °F 66.7 °F 29.68 in Calm     89% 0.00 in 193 W/m2
14:50 70.2 °F 66.5 °F 29.67 in Calm     88% 0.00 in 279 W/m2
14:56 70.5 °F 66.8 °F 29.68 in Calm   2.0 mph 88% 0.00 in 341 W/m2
15:02 71.0 °F 66.9 °F 29.69 in WSW 1.0 mph 3.0 mph 87% 0.00 in 380 W/m2
15:08 71.3 °F 66.9 °F 29.69 in WSW 2.0 mph 3.0 mph 86% 0.00 in 364 W/m2
15:14 71.5 °F 66.8 °F 29.69 in SSW 3.0 mph 5.0 mph 85% 0.00 in 508 W/m2
15:20 71.9 °F 66.1 °F 29.69 in South 3.0 mph 3.0 mph 82% 0.00 in 390 W/m2
15:26 72.5 °F 66.7 °F 29.69 in WSW 2.0 mph 3.0 mph 82% 0.00 in 318 W/m2
15:32 71.9 °F 64.3 °F 29.69 in WSW 2.0 mph 2.0 mph 77% 0.00 in 299 W/m2
15:38 72.0 °F 65.1 °F 29.68 in WSW 2.0 mph 3.0 mph 79% 0.00 in 315 W/m2
15:44 72.2 °F 65.3 °F 29.69 in SSW 2.0 mph 4.0 mph 79% 0.00 in 257 W/m2
15:50 71.9 °F 65.0 °F 29.69 in South 2.0 mph 2.0 mph 79% 0.00 in 202 W/m2
15:56 71.8 °F 64.9 °F 29.69 in South 2.0 mph 3.0 mph 79% 0.00 in 221 W/m2
16:02 71.6 °F 64.7 °F 29.69 in SSW 2.0 mph 2.0 mph 79% 0.00 in 216 W/m2
16:08 71.7 °F 64.8 °F 29.69 in SSW 2.0 mph 3.0 mph 79% 0.00 in 195 W/m2
16:14 71.7 °F 64.5 °F 29.69 in SSW 2.0 mph 3.0 mph 78% 0.00 in 155 W/m2
16:20 71.7 °F 64.5 °F 29.69 in SSW 2.0 mph 2.0 mph 78% 0.00 in 225 W/m2
16:26 72.0 °F 64.8 °F 29.69 in SSW 2.0 mph 3.0 mph 78% 0.00 in 216 W/m2
16:32 72.0 °F 64.4 °F 29.69 in SSW 1.0 mph 1.0 mph 77% 0.00 in 167 W/m2
16:38 72.1 °F 64.5 °F 29.69 in SSW 1.0 mph 1.0 mph 77% 0.00 in 192 W/m2
16:44 72.2 °F 65.0 °F 29.68 in SSW 1.0 mph 2.0 mph 78% 0.00 in 153 W/m2
16:50 72.2 °F 64.6 °F 29.68 in Calm     77% 0.00 in 167 W/m2
16:56 72.4 °F 66.2 °F 29.69 in Calm   1.0 mph 81% 0.00 in 267 W/m2
17:02 72.7 °F 65.4 °F 29.68 in SSE 1.0 mph 4.0 mph 78% 0.00 in 232 W/m2
17:08 72.6 °F 65.0 °F 29.68 in SSE 2.0 mph 4.0 mph 77% 0.00 in 243 W/m2
17:14 73.3 °F 66.4 °F 29.68 in South 2.0 mph 4.0 mph 79% 0.00 in 244 W/m2
17:20 73.4 °F 65.0 °F 29.68 in South 2.0 mph 2.0 mph 75% 0.00 in 206 W/m2
17:26 73.2 °F 65.2 °F 29.68 in SSW 1.0 mph 3.0 mph 76% 0.00 in 229 W/m2
17:32 73.3 °F 65.7 °F 29.68 in SW 2.0 mph 5.0 mph 77% 0.00 in 220 W/m2
17:38 73.3 °F 65.3 °F 29.68 in SW 2.0 mph 5.0 mph 76% 0.00 in 279 W/m2
17:44 73.4 °F 65.4 °F 29.69 in SW 2.0 mph 3.0 mph 76% 0.00 in 213 W/m2
17:50 73.4 °F 65.7 °F 29.68 in South 2.0 mph 2.0 mph 77% 0.00 in 258 W/m2
17:56 73.6 °F 65.6 °F 29.68 in SSW 2.0 mph 3.0 mph 76% 0.00 in 199 W/m2
18:02 73.4 °F 65.4 °F 29.68 in SSE 2.0 mph 3.0 mph 76% 0.00 in 127 W/m2
18:08 73.3 °F 65.7 °F 29.68 in SSE 2.0 mph 3.0 mph 77% 0.00 in 127 W/m2
18:14 73.3 °F 65.3 °F 29.68 in SW 1.0 mph 2.0 mph 76% 0.00 in 139 W/m2
18:20 73.3 °F 65.7 °F 29.68 in SSE 1.0 mph 2.0 mph 77% 0.00 in 111 W/m2
18:26 73.4 °F 66.1 °F 29.68 in SSE 1.0 mph 1.0 mph 78% 0.00 in 116 W/m2
18:32 73.4 °F 66.1 °F 29.68 in Calm   1.0 mph 78% 0.00 in 39 W/m2
18:38 73.1 °F 65.5 °F 29.69 in SSE 1.0 mph 2.0 mph 77% 0.00 in 35 W/m2
18:44 72.8 °F 65.2 °F 29.69 in SSE 2.0 mph 2.0 mph 77% 0.00 in 21 W/m2
18:50 72.6 °F 65.3 °F 29.69 in SSE 1.0 mph 1.0 mph 78% 0.00 in 14 W/m2
18:56 72.5 °F 66.0 °F 29.69 in Calm     80% 0.00 in 16 W/m2
19:02 72.0 °F 66.2 °F 29.69 in Calm     82% 0.00 in 14 W/m2
19:08 71.5 °F 66.1 °F 29.69 in Calm     83% 0.00 in 16 W/m2
19:14 71.4 °F 66.3 °F 29.69 in Calm     84% 0.00 in 14 W/m2
19:20 71.1 °F 66.4 °F 29.69 in Calm     85% 0.00 in 9 W/m2
19:26 70.5 °F 65.8 °F 29.69 in Calm     85% 0.00 in 5 W/m2
19:32 70.3 °F 66.2 °F 29.70 in Calm     87% 0.00 in 0 W/m2
19:38 70.4 °F 66.7 °F 29.70 in Calm     88% 0.00 in 0 W/m2
19:44 70.1 °F 66.0 °F 29.70 in Calm   1.0 mph 87% 0.00 in 0 W/m2
19:50 69.9 °F 65.9 °F 29.70 in Calm   1.0 mph 87% 0.00 in 0 W/m2
19:56 69.4 °F 65.0 °F 29.71 in NW 2.0 mph 5.0 mph 86% 0.00 in 0 W/m2
20:02 69.0 °F 64.3 °F 29.71 in NNW 3.0 mph 3.0 mph 85% 0.00 in 0 W/m2
20:08 68.8 °F 64.4 °F 29.71 in NNW 1.0 mph 3.0 mph 86% 0.00 in 0 W/m2
20:14 67.4 °F 62.1 °F 29.71 in NE 1.0 mph 6.0 mph 83% 2.84 in 0 W/m2
20:20 65.7 °F 61.4 °F 29.72 in West 2.0 mph 2.0 mph 86% 0.19 in 5 W/m2
20:26 64.9 °F 60.9 °F 29.71 in NW 1.0 mph 3.0 mph 87% 0.06 in 0 W/m2
20:32 64.5 °F 61.2 °F 29.71 in NW 1.0 mph 1.0 mph 89% 0.05 in 0 W/m2
20:38 64.3 °F 61.3 °F 29.71 in NW 1.0 mph 1.0 mph 90% 0.05 in 0 W/m2
20:44 64.2 °F 61.2 °F 29.71 in NW 1.0 mph 2.0 mph 90% 0.04 in 0 W/m2
20:50 64.2 °F 61.5 °F 29.72 in NW 1.0 mph 1.0 mph 91% 0.00 in 0 W/m2
20:56 64.0 °F 61.3 °F 29.71 in NE 1.0 mph 3.0 mph 91% 0.00 in 0 W/m2
21:02 63.9 °F 61.5 °F 29.71 in NE 1.0 mph 1.0 mph 92% 0.00 in 0 W/m2
21:08 64.0 °F 61.6 °F 29.71 in Calm   1.0 mph 92% 0.00 in 0 W/m2
21:20 64.0 °F 61.6 °F 29.71 in Calm     92% 0.00 in 0 W/m2
21:26 64.0 °F 61.6 °F 29.72 in Calm     92% 0.00 in 0 W/m2
21:32 64.0 °F 61.6 °F 29.72 in Calm     92% 0.00 in 0 W/m2
21:38 64.1 °F 61.7 °F 29.73 in Calm     92% 0.00 in 0 W/m2
21:44 64.2 °F 62.1 °F 29.73 in Calm     93% 0.00 in 0 W/m2
21:50 64.3 °F 62.2 °F 29.73 in Calm     93% 0.00 in 0 W/m2
21:56 64.2 °F 62.1 °F 29.73 in Calm     93% 0.00 in 0 W/m2
22:02 64.1 °F 62.0 °F 29.73 in Calm     93% 0.00 in 0 W/m2
22:08 63.8 °F 61.7 °F 29.73 in Calm     93% 0.00 in 0 W/m2
22:14 63.7 °F 61.6 °F 29.73 in Calm     93% 0.00 in 0 W/m2
22:20 63.6 °F 61.5 °F 29.74 in Calm     93% 0.00 in 0 W/m2
22:26 63.5 °F 61.4 °F 29.74 in Calm     93% 0.00 in 0 W/m2
22:32 63.4 °F 61.3 °F 29.74 in Calm     93% 0.00 in 0 W/m2
22:38 63.6 °F 61.5 °F 29.74 in Calm     93% 0.00 in 0 W/m2
22:44 63.6 °F 61.5 °F 29.74 in Calm     93% 0.00 in 0 W/m2
22:50 63.6 °F 61.5 °F 29.74 in Calm     93% 0.00 in 0 W/m2
22:56 63.4 °F 61.3 °F 29.74 in Calm     93% 0.00 in 0 W/m2
23:02 63.2 °F 61.1 °F 29.74 in Calm     93% 0.00 in 0 W/m2
23:08 63.1 °F 61.0 °F 29.74 in Calm     93% 0.00 in 0 W/m2
23:14 63.0 °F 60.9 °F 29.74 in Calm     93% 0.00 in 0 W/m2
23:20 62.9 °F 60.8 °F 29.74 in Calm     93% 0.00 in 0 W/m2
23:26 62.8 °F 60.7 °F 29.74 in Calm     93% 0.00 in 0 W/m2
23:32 62.9 °F 60.8 °F 29.74 in Calm     93% 0.00 in 0 W/m2
23:38 62.9 °F 61.1 °F 29.73 in Calm     94% 0.00 in 0 W/m2
23:44 62.9 °F 61.1 °F 29.73 in Calm     94% 0.00 in 0 W/m2
23:50 62.9 °F 61.1 °F 29.73 in Calm     94% 0.00 in 0 W/m2
23:56 63.0 °F 61.2 °F 29.73 in Calm     94% 0.00 in 0 W/m2
Country Meadow, Clay, NY, USA
Compliments of Weather Underground - 2 mb